Location: Saint-Usage
(47.1052°N, 5.2587°E)
Time: 09:28:06
(UTC+01:00)

NOAA 19 - Pass Details

Date: 29 November 2021
Orbit: 841 x 860 km, 99.2° (Epoch: 26 January)

Event Time Altitude Azimuth Distance (km) Brightness Sun altitude
Rises 18:51:49 0° 154° (SSE) 3,384 8.2 -19.7°
Reaches altitude 10° 18:54:11 10° 151° (SSE) 2,453 7.4 -20.1°
Maximum altitude 18:59:33 66° 71° (ENE) 920 5.1 -21.0°
Drops below altitude 10° 19:04:59 10° 350° (N) 2,475 7.6 -21.9°
Sets 19:07:22 0° 348° (NNW) 3,416 8.4 -22.3°
